Home > Weather > Fauske > Past weeks

Flag for Norway Past Weather in Fauske, Norway — Yesterday and Last 2 Weeks

Now
68 °F

Scattered showers. Partly sunny.


Feels Like: 68 °F
Forecast: 58 / 73 °F
Wind: 14 mph from East

Location: Bodo Vi

Current Time: Jul 30, 2016 at 3:10:50 PM

Latest Report: Jul 30, 2016 at 2:20 PM


Visibility: N/A

Pressure: 29.65 "Hg

Humidity: 69%

Dew Point: 57 °F

Location of FauskeLocation

Past Weather in Fauske — Graph

°F

Fauske Temperature Yesterday

Maximum temperature yesterday: 63 °F (at 4:50 PM)
Minimum temperature yesterday: 57 °F (at 12:50 AM)
Average temperature yesterday: 59 °F

High & Low Weather Summary for the Past Weeks

 TemperatureHumidityPressure
High79 °F (Jul 22, 12:20 PM)100% (Jul 16, 7:50 AM)30.15 "Hg (Jul 16, 7:50 AM)
Low50 °F (Jul 16, 4:50 AM)34% (Jul 22, 3:50 PM)29.56 "Hg (Jul 17, 7:20 AM)
Average59 °F83%29.92 "Hg
* Reported Jul 15 1:20 PM — Jul 30 1:50 PM, Fauske, Weather by CustomWeather, © 2016

Note: Actual official high and low records may vary slightly from our data, if they occured in-between our weather recording intervals... More about our weather records

Advertising

Fauske Weather History for the Previous 24 Hours

Scroll right to see more
 ConditionsComfort  
Time TempWeatherWind HumidityBarometerVisibility
1:50 PM
Sat, Jul 30
64 °FThunderstorms. Broken clouds.17 mph78%29.65 "HgN/A
1:20 PM66 °FThundershowers. Partly sunny.12 mph68%29.65 "HgN/A
12:50 PM66 °FScattered showers. Partly sunny.9 mph68%29.65 "HgN/A
12:20 PM64 °FPartly sunny.9 mph73%29.65 "HgN/A
11:50 AM64 °FPartly sunny.10 mph73%29.65 "HgN/A
11:20 AM64 °FPartly sunny.12 mph73%29.65 "HgN/A
10:50 AM63 °FPartly sunny.9 mph77%29.65 "HgN/A
10:20 AM63 °FBroken clouds.6 mph77%29.68 "HgN/A
9:50 AM61 °FBroken clouds.6 mph77%29.68 "HgN/A
9:20 AM61 °FBroken clouds.7 mph83%29.68 "HgN/A
8:50 AM61 °FBroken clouds.8 mph83%29.68 "HgN/A
8:20 AM61 °FBroken clouds.6 mph83%29.68 "HgN/A
7:50 AM59 °FBroken clouds.6 mph82%29.68 "HgN/A
7:20 AM59 °FBroken clouds.6 mph82%29.68 "HgN/A
6:50 AM59 °FBroken clouds.7 mph82%29.71 "HgN/A
6:20 AM57 °FBroken clouds.7 mph88%29.71 "HgN/A
5:50 AM57 °FBroken clouds.6 mph88%29.71 "HgN/A
5:20 AM57 °FBroken clouds.6 mph88%29.71 "HgN/A
4:50 AM55 °FBroken clouds.6 mph94%29.71 "HgN/A
3:50 AM54 °FPassing clouds.6 mph94%29.71 "HgN/A
1:50 AM55 °FPassing clouds.7 mph94%29.74 "HgN/A
12:50 AM57 °FPassing clouds.8 mph94%29.74 "HgN/A
11:50 PM
Fri, Jul 29
57 °FPassing clouds.7 mph88%29.77 "HgN/A
11:20 PM57 °FPassing clouds.9 mph88%29.77 "HgN/A
10:50 PM57 °FPassing clouds.9 mph88%29.77 "HgN/A
10:20 PM59 °FPassing clouds.10 mph88%29.77 "HgN/A
9:50 PM59 °FPassing clouds.9 mph82%29.77 "HgN/A
9:20 PM59 °FPassing clouds.9 mph82%29.77 "HgN/A
8:50 PM59 °FPassing clouds.9 mph82%29.77 "HgN/A
8:20 PM61 °FPassing clouds.8 mph77%29.77 "HgN/A
7:50 PM61 °FPassing clouds.8 mph77%29.77 "HgN/A
7:20 PM61 °FPassing clouds.6 mph77%29.77 "HgN/A
6:50 PM63 °FPassing clouds.6 mph73%29.77 "HgN/A
6:20 PM63 °FPassing clouds.3 mph68%29.77 "HgN/A
5:50 PM63 °FPassing clouds.5 mph73%29.80 "HgN/A
5:20 PM63 °FPassing clouds.5 mph73%29.80 "HgN/A
4:50 PM63 °FPassing clouds.6 mph73%29.80 "HgN/A
4:20 PM61 °FScattered clouds.6 mph83%29.80 "HgN/A
3:50 PM61 °FScattered clouds.5 mph83%29.80 "HgN/A
3:20 PM61 °FScattered clouds.7 mph83%29.80 "HgN/A
Weather by CustomWeather, © 2016

See weather overviewHow to use our weather pages